Weather History for KBWG - June, 2013

Change the Weather History Date:

Sunday, June 2, 2013

  Actual Average Record
Temperature  
Mean Temperature 73 °F 71 °F  
Max Temperature 81 °F 83 °F 99 °F (1921)
Min Temperature 64 °F 60 °F 43 °F (1889)
Degree Days  
Heating Degree Days 0 1  
Month to date heating degree days 0 2  
Since 1 June heating degree days 0 2  
Since 1 July heating degree days 3875 4045  
Cooling Degree Days 8 7  
Month to date cooling degree days 15 14  
Year to date cooling degree days 228 167  
Since 1 June cooling degree days 15 14  
Growing Degree Days 23 (Base 50)    
Moisture  
Dew Point 63 °F    
Average Humidity 71    
Maximum Humidity 87    
Minimum Humidity 54    
Precipitation  
Precipitation T in 0.15 in 1.82 in (1985)
Month to date precipitation 0.84 0.32  
Year to date precipitation 25.37 22.25  
Snow  
Snow 0.00 in 0.00 in 0.00 in ()
Month to date snowfall 0.0 0.0  
Since 1 June snowfall 0.0 0.0  
Since 1 July snowfall 3.8 9.1  
Snow Depth 0.00 in    
Sea Level Pressure  
Sea Level Pressure 29.93 in    
Wind  
Wind Speed 4 mph (WNW)    
Max Wind Speed 12 mph    
Max Gust Speed 18 mph    
Visibility 10 miles    
Events Rain    
T = Trace of Precipitation, MM = Missing Value Source: NWS Daily Summary

Daily Weather History Graph

Daily Weather History Graph

Search for Another Location

Airport or City:

Trip Planner

Search our weather history database for the weather conditions in past years. The results will help you decide how hot, cold, wet, or windy it might be!

Date:

Astronomy

Jun. 02, 2013 Rise Set
Actual Time 5:27 AM CDT 8:00 PM CDT
Civil Twilight 4:56 AM CDT 8:30 PM CDT
Nautical Twilight 4:19 AM CDT 9:08 PM CDT
Astronomical Twilight 3:37 AM CDT 9:50 PM CDT
Moon 1:46 AM CDT (6/2) 2:37 PM CDT (6/2)
Length of Visible Light 15h 33m
Length of Day
14h 33m
Waning Crescent, 30% of the Moon is Illuminated
Jun 2
Waning Crescent
Jun 8
New
Jun 16
First Quarter
Jun 23
Full
Jun 29
Last Quarter

Hourly Weather History & Observations

Time (CDT) Temp. Heat Index Dew Point Humidity Pressure Visibility Wind Dir Wind Speed Gust Speed Precip Events Conditions
12:53 AM 69.1 °F - 64.0 °F 84% 29.92 in 10.0 mi WSW 5.8 mph - N/A   Overcast
1:53 AM 69.1 °F - 64.0 °F 84% 29.92 in 10.0 mi WSW 5.8 mph - N/A   Overcast
2:53 AM 68.0 °F - 64.0 °F 87% 29.92 in 10.0 mi SW 3.5 mph - N/A   Overcast
3:53 AM 68.0 °F - 64.0 °F 87% 29.92 in 10.0 mi SSW 6.9 mph - N/A   Overcast
4:53 AM 68.0 °F - 64.0 °F 87% 29.91 in 10.0 mi WSW 3.5 mph - N/A   Overcast
5:53 AM 68.0 °F - 64.9 °F 90% 29.90 in 10.0 mi West 3.5 mph - 0.00 in   Overcast
6:53 AM 69.1 °F - 64.9 °F 87% 29.91 in 10.0 mi Calm Calm - N/A   Overcast
7:00 AM 69.8 °F - 64.4 °F 83% 29.92 in 10.0 mi Calm Calm - N/A   Overcast
7:14 AM 69.8 °F - 64.4 °F 83% 29.93 in 10.0 mi WSW 3.5 mph - N/A   Overcast
7:31 AM 69.8 °F - 64.4 °F 83% 29.93 in 10.0 mi WNW 3.5 mph - N/A   Overcast
7:42 AM 69.8 °F - 64.4 °F 83% 29.93 in 10.0 mi WNW 3.5 mph - N/A   Overcast
7:53 AM 70.0 °F - 64.9 °F 84% 29.91 in 10.0 mi NW 4.6 mph - N/A   Overcast
8:10 AM 69.8 °F - 64.4 °F 83% 29.93 in 10.0 mi Calm Calm - N/A   Overcast
8:53 AM 70.0 °F - 64.9 °F 84% 29.94 in 10.0 mi WNW 3.5 mph - N/A   Overcast
8:59 AM 69.8 °F - 64.4 °F 83% 29.96 in 10.0 mi Variable 3.5 mph - N/A   Overcast
9:34 AM 69.8 °F - 64.4 °F 83% 29.97 in 10.0 mi Calm Calm - 0.00 in Rain Light Rain
9:53 AM 71.1 °F - 63.0 °F 75% 29.95 in 10.0 mi Calm Calm - 0.00 in   Overcast
10:53 AM 73.0 °F - 64.0 °F 73% 29.93 in 10.0 mi Calm Calm - N/A   Overcast
11:21 AM 75.2 °F - 62.6 °F 65% 29.93 in 10.0 mi Calm Calm - N/A   Scattered Clouds
11:28 AM 75.2 °F - 62.6 °F 65% 29.93 in 10.0 mi Calm Calm - N/A   Mostly Cloudy
11:38 AM 75.2 °F - 62.6 °F 65% 29.93 in 10.0 mi Calm Calm - N/A   Scattered Clouds
11:48 AM 77.0 °F - 64.4 °F 65% 29.93 in 10.0 mi NNE 4.6 mph - N/A   Mostly Cloudy
11:53 AM 77.0 °F - 63.0 °F 62% 29.92 in 10.0 mi NNW 3.5 mph - N/A   Mostly Cloudy
12:00 PM 75.2 °F - 62.6 °F 65% 29.93 in 10.0 mi Variable 4.6 mph - N/A   Scattered Clouds
12:33 PM 75.2 °F - 62.6 °F 65% 29.94 in 10.0 mi NNW 5.8 mph - N/A   Mostly Cloudy
12:41 PM 77.0 °F - 62.6 °F 61% 29.94 in 10.0 mi Variable 5.8 mph - N/A   Mostly Cloudy
12:53 PM 75.9 °F - 62.1 °F 62% 29.93 in 10.0 mi Calm Calm - N/A   Mostly Cloudy
1:53 PM 77.0 °F - 64.0 °F 64% 29.93 in 10.0 mi Variable 5.8 mph - N/A   Overcast
2:53 PM 79.0 °F - 63.0 °F 58% 29.91 in 10.0 mi WNW 6.9 mph - N/A   Overcast
3:53 PM 80.1 °F 81.5 °F 63.0 °F 56% 29.90 in 10.0 mi West 8.1 mph - N/A   Scattered Clouds
4:53 PM 78.1 °F - 62.1 °F 58% 29.89 in 10.0 mi WNW 8.1 mph - N/A   Overcast
5:53 PM 78.1 °F - 60.1 °F 54% 29.88 in 10.0 mi Variable 6.9 mph - N/A   Mostly Cloudy
6:53 PM 75.9 °F - 57.9 °F 54% 29.90 in 10.0 mi Variable 6.9 mph - N/A   Clear
7:53 PM 73.0 °F - 59.0 °F 61% 29.92 in 10.0 mi NNW 5.8 mph - N/A   Clear
8:53 PM 70.0 °F - 59.0 °F 68% 29.94 in 10.0 mi NNW 3.5 mph - N/A   Clear
9:53 PM 69.1 °F - 59.0 °F 70% 29.95 in 10.0 mi NNW 3.5 mph - N/A   Clear
10:53 PM 66.9 °F - 59.0 °F 76% 29.96 in 10.0 mi Calm Calm - N/A   Clear
11:53 PM 66.0 °F - 59.0 °F 78% 29.95 in 10.0 mi Calm Calm - N/A   Clear